Temperature
23 24 23 23 23 23 23 23 23 23 23 23 23 23 23 22 21 21 21 21 20 20 19 18 18 18 17 17 17 17 17 16 16 16 16 16 16 16 16 16 15 15 15 15
23 23 23 23 23 23 23 23 23 23 23 23 23 23 23 22 21 21 21 21 20 20 19 18 18 18 18 17 17 17 17 16 16 16 16 16 16 15 16 15 15 15 15 15
23 23 23 23 23 23 23 23 23 23 22 23 23 23 23 23 21 20 20 20 20 19 19 19 18 18 17 17 17 17 17 16 16 16 16 16 15 15 15 15 15 15 15 15
23 23 22 23 23 23 23 23 23 22 23 23 23 23 23 23 22 21 20 20 20 19 19 18 18 17 17 17 17 17 16 16 16 16 16 16 16 16 15 15 15 15 15 15
23 23 23 23 23 23 23 22 22 22 23 23 23 23 23 23 22 22 21 20 19 19 18 18 17 17 17 17 17 16 16 16 16 16 16 16 16 15 15 15 15 15 15 15
23 22 23 23 23 22 22 22 22 22 23 23 23 23 23 23 22 22 22 20 19 19 18 18 17 17 17 17 16 16 16 16 16 16 16 16 15 15 15 15 15 15 15 15
23 23 23 22 23 22 23 23 23 23 23 23 23 22 22 22 22 21 21 20 19 19 18 17 17 17 17 17 16 16 16 16 16 16 16 16 15 15 15 15 15 15 15 15
22 22 23 23 23 23 23 23 22 22 22 23 22 22 22 22 21 20 20 19 19 18 18 17 17 16 16 16 16 16 16 16 16 15 15 15 15 15 15 15 15 15 15 15
22 22 22 22 22 23 23 23 23 23 22 22 23 22 22 22 21 20 20 19 18 18 17 17 16 16 16 16 16 16 16 16 15 15 15 15 15 15 15 15 15 15 15 15
22 22 22 21 22 21 22 22 22 22 21 22 22 22 22 22 21 21 20 19 19 18 17 16 16 16 16 16 16 16 16 15 15 15 15 15 15 15 15 14 15 15 15 15
22 22 22 22 22 22 22 22 22 22 22 21 21 22 22 22 21 21 20 19 18 17 17 16 16 16 16 16 16 15 15 15 15 15 15 15 15 15 15 14 14 14 14 14
21 22 22 22 21 21 22 22 22 21 21 21 21 22 22 21 21 20 20 19 18 17 16 16 15 15 15 15 15 15 15 15 15 15 14 14 14 14 14 14 14 14 14 14
20 21 21 21 21 21 21 21 21 21 21 21 21 22 22 21 20 19 19 18 17 17 16 16 15 15 15 15 15 15 15 15 14 14 14 14 14 14 14 14 14 14 14 14
19 21 21 21 21 21 20 20 20 20 21 21 21 21 21 21 20 19 18 18 17 16 16 16 15 15 15 15 15 15 15 14 14 14 14 14 14 14 13 13 14 14 14 13
20 21 21 20 20 20 20 20 20 20 20 20 21 21 21 21 20 19 18 17 16 16 15 15 15 15 15 15 15 14 14 14 14 14 14 14 13 13 13 13 13 13 13 13
20 20 20 20 19 19 19 19 19 19 20 20 20 20 21 19 19 18 18 17 16 16 15 15 15 15 15 15 14 14 14 14 14 14 13 13 13 13 13 13 13 13 13 13
19 19 19 19 19 19 19 20 19 19 20 20 19 20 19 19 18 17 17 16 16 15 15 15 15 15 15 14 14 14 14 14 14 13 13 13 13 13 13 13 13 13 13 13
18 19 19 19 19 18 20 20 19 19 19 19 19 19 18 17 17 16 16 16 15 15 15 15 14 14 14 14 14 14 14 13 13 13 13 13 13 13 13 13 13 13 12 12
18 18 18 18 18 19 19 19 18 18 18 18 18 18 17 16 17 17 16 15 15 14 14 14 14 14 14 14 13 13 13 13 13 13 13 13 13 12 13 12 12 12 12 12
16 17 18 17 17 18 19 18 17 18 18 17 17 17 16 16 18 18 15 14 14 14 14 14 14 14 14 13 13 13 13 13 13 12 12 12 12 12 12 12 12 12 12 12
16 16 17 17 17 18 18 16 17 17 18 16 16 16 15 16 16 15 14 14 14 14 13 13 14 14 13 13 13 13 12 12 12 12 12 12 12 12 12 12 12 12 12 11
17 17 17 17 17 17 16 16 17 17 16 15 15 15 14 14 14 13 13 13 13 13 13 13 13 13 13 13 13 12 12 12 12 12 12 12 12 12 11 11 11 11 11 11
16 17 17 17 17 16 15 15 15 14 15 14 14 14 13 13 13 13 13 13 13 13 13 13 13 13 13 12 12 12 12 12 11 11 11 11 11 11 11 11 11 11 11 11
15 14 15 16 16 15 14 14 13 13 13 13 13 13 13 13 12 12 12 12 12 12 12 12 12 12 12 12 12 12 11 11 11 11 11 11 11 11 11 11 10 10 10 10
14 14 14 15 15 14 13 13 13 12 12 12 12 12 12 12 12 12 12 12 12 12 12 12 12 12 12 12 12 11 11 11 11 11 11 11 11 10 10 10 10 10 10 10
14 14 14 15 15 15 14 13 12 12 12 12 12 11 11 11 11 11 11 11 12 12 12 12 11 11 11 11 11 11 11 11 11 11 10 10 10 10 10 10 10 10 10 10
Wind_Speed
2 3 2 0 0 1 1 2 2 1 0 3 5 5 3 3 4 5 5 5 4 4 4 4 4 4 4 4 4 3 3 3 3 2 2 2 2 1 1 1 1 2 2 3
4 3 0 1 2 3 3 3 2 0 0 3 4 4 2 2 4 4 4 4 4 4 4 4 4 4 4 4 4 3 3 3 3 2 2 2 1 1 1 1 1 1 2 3
3 1 1 3 3 3 3 3 2 2 2 3 4 3 3 2 2 2 3 3 3 3 4 4 4 4 4 4 4 3 3 3 3 3 3 3 2 2 2 2 1 1 2 3
2 1 2 3 2 4 3 2 3 3 3 1 2 2 2 1 2 2 3 3 3 3 3 3 4 4 4 4 4 4 3 3 3 4 3 3 2 2 1 1 2 2 2 3
2 2 3 3 2 3 1 1 3 4 4 4 3 4 1 1 1 1 2 3 3 3 3 3 4 4 4 4 4 3 3 3 3 3 3 3 2 2 2 2 2 2 2 2
2 2 2 2 0 2 2 3 3 4 5 4 2 4 1 0 2 2 1 2 3 3 3 3 3 4 4 4 4 4 4 4 3 4 4 3 3 3 3 3 3 2 2 2
4 4 2 2 3 4 4 4 3 4 4 2 0 4 1 2 2 2 1 0 2 3 3 4 4 4 4 4 4 4 3 4 4 4 4 4 4 4 4 3 3 2 2 2
4 4 3 2 3 3 4 5 4 3 3 2 2 3 1 2 1 1 1 1 2 2 3 3 3 4 4 4 4 4 4 4 4 4 4 4 4 3 3 3 3 3 2 2
3 2 3 1 1 3 4 4 4 5 5 5 3 2 1 1 1 1 2 2 2 2 2 3 3 3 4 4 4 4 4 4 4 4 3 4 4 3 3 3 3 2 2 2
3 4 2 2 3 1 2 2 3 4 4 5 4 4 2 2 1 1 1 1 1 1 1 1 2 3 3 4 4 4 4 4 4 4 3 3 3 3 3 3 2 3 3 3
4 5 4 4 4 3 3 4 4 5 5 5 5 2 1 1 1 1 1 1 1 1 1 1 1 2 3 4 4 4 3 4 4 4 4 4 3 3 3 3 2 2 2 3
3 4 5 4 1 2 4 5 6 7 6 6 7 3 2 0 2 2 3 2 2 2 1 1 1 2 3 3 3 4 4 4 3 4 4 4 3 3 3 3 3 3 3 3
3 4 5 4 5 4 4 3 4 6 6 8 8 4 2 1 3 3 3 3 2 2 1 1 2 2 3 3 3 4 4 4 4 4 4 4 4 4 4 3 3 3 3 3
3 6 7 7 4 3 5 6 6 8 8 9 10 10 6 5 5 5 4 3 2 2 2 2 2 2 3 3 3 4 4 4 4 4 4 5 4 4 4 3 3 3 3 3
4 7 7 7 6 6 8 9 9 11 11 11 11 11 10 7 6 5 4 3 2 3 3 3 3 3 3 3 4 4 4 5 5 5 5 4 4 4 3 3 3 2 3 3
4 6 6 8 6 7 10 11 11 12 12 13 13 12 7 6 5 5 4 3 3 4 4 4 4 4 4 4 5 5 5 5 5 5 5 4 4 4 4 4 3 2 2 3
4 5 6 7 5 7 10 9 10 9 10 10 11 8 4 6 6 6 5 4 4 4 4 4 4 4 5 5 5 6 6 5 5 5 5 5 5 5 5 4 3 3 4 3
6 7 5 6 5 8 3 1 4 7 7 6 6 5 5 6 7 7 5 5 4 4 4 5 5 5 5 4 4 5 5 6 6 6 5 5 5 5 4 4 4 4 4 4
8 7 5 5 7 8 5 2 3 5 6 3 4 4 4 5 6 4 2 4 5 5 5 5 5 4 4 4 4 5 6 6 6 6 6 6 5 5 5 5 4 4 4 4
6 8 7 7 7 7 2 2 1 4 5 0 2 3 4 5 6 4 5 6 6 5 4 4 3 4 3 3 4 5 5 6 6 6 6 6 6 6 6 5 5 4 4 4
6 7 10 11 9 7 0 1 2 5 2 1 2 3 4 5 6 6 7 7 5 4 4 3 3 3 3 3 4 5 5 6 6 5 6 6 6 6 6 5 4 4 4 4
7 6 8 8 9 6 3 3 3 3 3 2 3 4 5 7 7 7 7 6 5 4 3 2 2 2 2 3 4 5 5 5 5 5 5 6 6 5 4 4 4 4 4 4
6 5 5 6 4 2 1 2 2 4 4 4 5 6 6 7 7 7 7 6 5 4 3 2 2 2 2 3 4 5 4 4 5 5 5 5 5 5 5 5 5 5 4 4
5 4 6 6 6 5 5 4 4 5 6 6 6 5 6 7 7 7 7 5 5 4 3 3 3 3 2 3 4 4 3 4 5 6 5 5 5 5 5 4 5 5 5 5
6 5 6 9 7 6 7 7 6 6 6 6 6 6 6 7 7 7 7 6 5 4 4 4 4 3 3 3 3 4 4 4 5 6 6 6 5 5 5 5 5 6 6 5
9 9 9 9 7 7 8 7 7 7 7 7 7 7 7 7 7 7 7 6 6 5 4 4 4 4 4 4 4 4 4 5 6 6 6 5 5 5 5 5 4 3 4 4
Wind_Direction
203 206 192 138 255 296 243 247 269 309 286 254 257 275 278 223 213 214 211 210 213 205 188 178 180 177 177 179 183 175 183 182 175 168 173 167 166 174 153 139 132 159 177 170
193 204 254 209 197 223 236 248 265 216 106 265 277 277 251 199 211 217 217 213 213 203 185 175 182 178 180 178 181 179 183 176 166 160 166 160 154 156 135 153 143 155 168 174
221 90 147 194 197 226 239 260 282 297 283 221 269 234 185 158 178 199 224 231 220 205 198 179 183 184 182 181 179 182 181 173 163 160 154 147 146 181 168 161 150 153 164 169
213 178 209 224 231 254 247 278 270 265 259 245 265 260 161 152 177 194 208 210 207 194 191 179 179 181 181 178 174 179 176 173 168 172 171 169 178 184 171 156 144 153 155 167
186 196 221 237 259 251 289 307 255 250 251 253 231 258 163 135 262 246 225 212 204 191 186 178 178 176 167 157 159 165 165 171 172 176 172 191 195 187 176 177 160 155 140 145
228 226 255 265 246 201 183 212 207 217 237 241 253 262 248 92 317 315 271 208 196 181 175 169 157 154 152 146 149 159 170 166 170 180 186 195 192 193 187 186 179 175 158 153
204 195 187 215 202 175 221 251 240 221 225 242 294 258 284 20 347 313 338 98 167 166 164 157 151 158 153 155 158 161 170 170 174 185 192 198 201 201 197 196 190 190 175 172
221 201 178 206 244 242 230 249 268 276 272 278 236 247 23 30 16 335 8 76 109 135 139 138 150 163 164 165 166 171 176 172 172 185 198 202 200 210 204 207 210 207 201 195
238 212 139 164 260 253 228 233 283 280 280 271 240 239 230 148 133 133 122 105 108 115 125 135 146 158 164 170 176 182 186 180 180 186 199 205 200 207 212 214 221 213 208 198
269 246 195 168 180 121 287 223 233 253 272 269 259 251 245 189 180 133 163 169 144 134 142 154 162 170 169 176 178 180 193 189 184 186 195 209 213 213 216 215 215 213 212 201
253 245 209 197 223 231 195 208 238 252 264 275 278 275 43 256 280 274 258 239 229 234 209 200 197 186 178 173 176 178 187 186 185 190 199 206 207 217 215 211 214 218 217 203
231 253 242 227 208 276 251 251 244 255 256 256 275 279 82 355 316 304 298 289 266 259 236 199 192 191 186 180 179 184 190 186 188 196 198 204 206 210 217 213 214 215 211 206
200 238 244 213 196 196 216 222 241 263 266 254 257 262 125 319 321 314 302 289 281 267 236 197 187 197 201 196 195 196 199 195 191 197 202 201 207 214 217 214 207 210 209 206
233 241 250 262 285 262 246 241 238 245 256 262 259 272 275 293 311 316 308 295 285 258 238 219 209 216 219 210 205 207 206 203 198 197 204 207 210 216 219 209 207 210 209 208
236 252 253 266 272 259 258 255 244 244 257 266 276 280 284 288 296 302 302 297 284 269 256 248 240 241 232 216 213 212 204 203 200 199 206 209 209 207 209 206 210 212 213 212
236 247 253 255 247 254 259 256 249 249 255 260 269 275 284 293 293 296 298 290 271 262 258 255 252 248 244 232 221 213 207 205 203 206 208 202 208 204 209 210 206 209 220 217
221 236 250 257 253 264 255 248 243 245 248 251 262 275 292 292 299 299 298 290 283 273 268 262 261 256 253 244 229 219 212 203 204 210 208 201 204 204 209 208 202 208 212 206
230 235 246 261 259 249 259 184 238 249 258 260 267 282 282 287 293 287 289 290 285 277 273 272 271 268 260 247 234 218 208 204 205 206 206 206 207 206 207 205 207 211 205 203
227 224 233 244 255 264 250 220 229 244 258 255 265 283 306 312 289 274 324 319 304 290 281 277 275 267 261 243 227 214 206 205 206 206 209 209 210 208 206 208 214 212 201 199
200 217 230 234 247 255 242 126 279 252 242 140 295 308 317 308 291 300 333 318 306 297 284 279 277 267 254 237 216 210 208 210 213 211 213 212 212 212 212 215 219 208 201 204
190 208 225 236 244 256 357 124 207 235 301 47 292 299 296 292 309 317 312 308 301 300 295 291 279 267 247 219 209 215 216 218 217 212 212 213 212 214 215 213 213 206 201 201
215 215 221 228 237 245 124 169 220 320 6 302 294 297 296 299 310 313 309 310 309 310 305 294 280 265 224 207 208 216 223 223 213 206 207 210 210 207 208 209 208 205 202 204
228 237 240 232 246 359 182 227 323 333 311 307 299 298 295 296 303 310 310 311 310 310 306 289 272 258 220 209 217 223 222 216 208 206 208 209 207 204 204 200 198 201 204 212
229 244 244 249 253 253 248 262 283 304 303 305 299 293 288 292 301 307 308 306 307 305 302 292 273 254 241 224 220 230 226 214 211 212 211 210 208 204 202 201 202 208 210 213
239 222 241 251 262 266 256 263 277 294 298 296 292 288 288 292 297 300 302 301 295 293 293 286 273 265 254 237 231 231 227 218 217 217 215 213 209 205 207 208 213 218 221 224
231 233 242 256 260 264 273 280 284 287 289 291 289 289 291 291 293 296 298 298 292 288 287 282 271 261 253 241 236 230 228 224 222 220 217 216 211 207 210 211 218 227 241 233
Height
1532 1530 1530 1530 1530 1531 1531 1531 1532 1531 1531 1533 1531 1530 1530 1532 1534 1534 1535 1537 1538 1539 1541 1542 1542 1543 1544 1544 1545 1545 1546 1546 1547 1547 1548 1549 1550 1551 1551 1551 1552 1552 1553 1554
1531 1531 1530 1531 1532 1532 1531 1532 1531 1531 1531 1532 1530 1528 1528 1530 1532 1533 1534 1535 1536 1538 1539 1540 1541 1542 1543 1543 1544 1545 1545 1545 1546 1546 1547 1548 1549 1550 1550 1550 1551 1552 1552 1553
1529 1530 1532 1531 1531 1531 1531 1531 1531 1533 1532 1530 1530 1528 1526 1528 1531 1533 1534 1534 1535 1536 1537 1538 1539 1540 1541 1542 1542 1543 1544 1545 1545 1546 1547 1547 1548 1549 1550 1550 1550 1550 1551 1552
1529 1530 1531 1531 1530 1530 1532 1530 1531 1532 1532 1531 1532 1534 1525 1525 1528 1530 1531 1532 1533 1534 1536 1537 1538 1538 1539 1540 1541 1542 1543 1544 1544 1545 1545 1547 1547 1548 1549 1549 1549 1550 1550 1551
1530 1530 1531 1531 1530 1530 1530 1531 1530 1530 1530 1531 1528 1531 1525 1524 1526 1527 1529 1531 1532 1533 1534 1535 1536 1537 1538 1539 1539 1540 1542 1542 1543 1544 1545 1545 1546 1547 1548 1549 1549 1549 1549 1550
1529 1531 1530 1529 1530 1531 1531 1531 1530 1529 1528 1534 1529 1530 1529 1524 1526 1526 1527 1529 1530 1531 1532 1533 1534 1535 1536 1537 1538 1539 1540 1541 1542 1543 1544 1545 1545 1546 1547 1547 1548 1548 1548 1549
1529 1528 1530 1531 1529 1530 1529 1530 1534 1535 1534 1532 1528 1530 1529 1524 1526 1527 1527 1528 1529 1530 1531 1532 1533 1533 1534 1535 1536 1537 1538 1539 1540 1541 1543 1543 1544 1545 1546 1546 1547 1547 1548 1548
1531 1531 1528 1529 1528 1529 1528 1528 1536 1542 1537 1530 1528 1529 1526 1525 1527 1528 1528 1528 1529 1529 1530 1531 1532 1532 1533 1534 1535 1536 1537 1538 1539 1540 1541 1542 1543 1544 1544 1545 1545 1546 1546 1547
1528 1530 1528 1530 1529 1528 1528 1527 1527 1530 1530 1533 1526 1525 1524 1524 1525 1526 1527 1528 1528 1529 1529 1530 1531 1531 1532 1533 1533 1534 1536 1537 1538 1539 1540 1541 1542 1542 1543 1543 1544 1544 1544 1545
1527 1530 1528 1530 1530 1531 1528 1527 1529 1532 1539 1536 1529 1526 1524 1523 1523 1524 1525 1527 1527 1528 1529 1529 1529 1530 1531 1531 1532 1533 1534 1535 1536 1537 1538 1539 1540 1541 1541 1541 1542 1542 1543 1543
1528 1529 1529 1528 1528 1527 1530 1530 1529 1529 1530 1536 1534 1528 1518 1520 1522 1523 1524 1526 1527 1527 1527 1527 1528 1528 1529 1530 1531 1532 1533 1534 1534 1535 1536 1537 1538 1539 1539 1539 1540 1540 1541 1541
1529 1527 1528 1527 1528 1529 1527 1527 1528 1533 1531 1531 1531 1528 1518 1521 1523 1524 1524 1525 1526 1526 1526 1526 1526 1526 1527 1528 1529 1530 1531 1532 1532 1533 1534 1535 1536 1537 1537 1537 1538 1538 1538 1539
1529 1528 1531 1530 1531 1529 1528 1528 1528 1528 1528 1529 1531 1526 1518 1520 1522 1523 1523 1524 1524 1524 1524 1524 1524 1524 1525 1525 1526 1527 1529 1529 1530 1531 1532 1533 1534 1534 1535 1535 1535 1536 1536 1537
1530 1526 1529 1532 1527 1526 1528 1529 1529 1529 1529 1526 1524 1521 1518 1519 1521 1522 1522 1522 1522 1522 1522 1522 1522 1522 1523 1523 1524 1525 1526 1527 1528 1529 1529 1531 1531 1532 1532 1533 1533 1534 1534 1535
1529 1526 1525 1525 1525 1526 1527 1527 1527 1527 1524 1525 1520 1519 1518 1518 1520 1521 1521 1521 1521 1520 1520 1520 1520 1520 1520 1521 1521 1522 1523 1524 1525 1526 1527 1528 1529 1529 1530 1530 1531 1531 1532 1533
1528 1526 1525 1526 1525 1526 1526 1524 1523 1524 1523 1521 1520 1519 1517 1519 1519 1519 1519 1519 1518 1518 1518 1518 1518 1518 1517 1518 1518 1519 1520 1521 1522 1523 1524 1525 1526 1526 1527 1528 1528 1529 1529 1530
1526 1526 1527 1524 1524 1525 1523 1518 1519 1519 1518 1518 1518 1516 1517 1518 1518 1518 1518 1517 1516 1516 1516 1516 1515 1515 1515 1515 1515 1515 1517 1518 1519 1520 1521 1522 1523 1524 1524 1525 1526 1526 1527 1528
1526 1526 1526 1524 1526 1529 1516 1514 1516 1517 1516 1516 1517 1517 1518 1518 1517 1517 1516 1515 1514 1514 1513 1513 1512 1512 1512 1511 1512 1512 1513 1515 1516 1517 1518 1519 1520 1521 1522 1522 1523 1524 1524 1525
1526 1526 1526 1525 1525 1518 1514 1515 1516 1517 1516 1517 1517 1517 1517 1517 1514 1513 1513 1513 1513 1511 1510 1510 1509 1509 1508 1508 1508 1509 1510 1511 1513 1513 1514 1515 1517 1518 1519 1519 1520 1521 1522 1522
1526 1525 1525 1524 1527 1521 1512 1515 1516 1517 1515 1517 1517 1517 1517 1515 1511 1509 1511 1511 1509 1508 1507 1506 1506 1505 1505 1505 1505 1506 1507 1508 1509 1510 1511 1512 1514 1514 1515 1516 1517 1518 1519 1520
1523 1524 1523 1521 1521 1512 1512 1516 1517 1518 1514 1516 1517 1517 1516 1515 1513 1512 1510 1508 1507 1506 1504 1503 1502 1501 1501 1501 1502 1503 1504 1505 1506 1507 1508 1509 1510 1511 1512 1514 1514 1516 1516 1517
1515 1517 1518 1518 1519 1516 1514 1515 1515 1514 1515 1516 1516 1516 1515 1514 1512 1510 1508 1506 1505 1503 1502 1500 1500 1499 1498 1498 1499 1500 1501 1502 1503 1504 1505 1506 1507 1508 1509 1510 1511 1512 1513 1514
1515 1514 1511 1512 1513 1513 1514 1515 1516 1516 1515 1515 1515 1514 1513 1511 1509 1508 1506 1504 1503 1501 1500 1499 1498 1497 1496 1497 1497 1498 1498 1499 1500 1501 1501 1502 1503 1504 1505 1506 1507 1509 1510 1510
1514 1517 1515 1512 1511 1513 1514 1514 1514 1515 1514 1514 1513 1512 1510 1509 1507 1505 1504 1502 1501 1499 1498 1497 1496 1495 1495 1495 1495 1495 1496 1496 1497 1498 1499 1500 1500 1501 1502 1503 1504 1505 1506 1507
1513 1515 1512 1510 1510 1512 1511 1512 1512 1512 1511 1511 1510 1509 1508 1506 1504 1503 1501 1500 1499 1497 1496 1495 1494 1493 1493 1492 1492 1492 1493 1493 1494 1495 1496 1496 1497 1498 1499 1500 1501 1502 1503 1504
1510 1511 1510 1507 1508 1509 1509 1509 1509 1508 1508 1507 1506 1505 1504 1503 1501 1500 1498 1497 1496 1495 1494 1493 1492 1491 1491 1490 1490 1489 1490 1490 1491 1491 1492 1493 1494 1494 1495 1496 1497 1498 1499 1500